NORTHERN QUEENS  -  Air Quality Alert Air Quality Alert        SOUTHERN QUEENS  -  Air Quality Alert Air Quality Alert      

Active alerts

Northern Queens
  Details for Northern Queens Air Quality Alert
Southern Queens
  Details for Southern Queens Air Quality Alert


WXM80 ListenWXM80 Stop

You find our weather info also at:

UK Metoffice

WeatherCloud

Weather Underground

Northeastern Weather Network

AWEKAS

Citizen Weather Observer Program (CWOP)

HAMweather, WeatherForYou, PWS Weather


Weather Underground History page Text

Daily Summary for November 26, 2017 Units:  Metric    English   Both
« Previous Day
Next Day »
Daily Weekly Monthly Yearly Custom
  High: Low: Average:
Temperature: 10.7 °C 3.5 °C 7.5 °C
Dew Point: 5.6 °C -2.1 °C 0.7 °C
Humidity: 71 % 51 % 62 %
Wind Speed: 19 km/h 0 km/h 7.7 km/h
Wind Gust: 31.5 km/h - -
Wind:- - West
Pressure: 1016.1 hPa 1007 hPa -
Precipitation: 0 mm    
Historical Graphs
 
 
Tabular Data for November 26, 2017
Time Temperature Dew Point Pressure Wind Wind Speed Wind Gust Humidity Rainfall Rate (Hourly)
00:01 10.3 °C 4.4 °C 1007 hPa West 5.1 km/h 7.4 km/h 67 % 0 mm
00:06 10.3 °C 4.4 °C 1007 hPa SW 2.7 km/h 7.4 km/h 67 % 0 mm
00:11 10.4 °C 4.5 °C 1007 hPa West 4.5 km/h 9.3 km/h 67 % 0 mm
00:17 10.4 °C 4.5 °C 1007 hPa WNW 5.5 km/h 8 km/h 67 % 0 mm
00:22 10.4 °C 4.5 °C 1007 hPa WSW 7.2 km/h 14.8 km/h 67 % 0 mm
00:27 10.4 °C 4.6 °C 1007.3 hPa West 6.9 km/h 11.3 km/h 67 % 0 mm
00:32 10.4 °C 4.6 °C 1007.3 hPa West 6.3 km/h 13 km/h 67 % 0 mm
00:37 10.4 °C 4.3 °C 1007.3 hPa WSW 5.3 km/h 14.8 km/h 66 % 0 mm
00:42 10.5 °C 4.6 °C 1007.3 hPa WSW 9.7 km/h 16.7 km/h 67 % 0 mm
00:47 10.6 °C 4.4 °C 1007.3 hPa WSW 5.8 km/h 9.3 km/h 66 % 0 mm
00:52 10.6 °C 4.4 °C 1007.3 hPa West 1.4 km/h 8 km/h 66 % 0 mm
00:57 10.6 °C 4.4 °C 1007.3 hPa WNW 7.2 km/h 12.9 km/h 66 % 0 mm
01:02 10.6 °C 4.5 °C 1007.3 hPa SW 6.3 km/h 16.7 km/h 66 % 0 mm
01:07 10.7 °C 4.6 °C 1007.7 hPa West 8 km/h 16.7 km/h 66 % 0 mm
01:12 10.7 °C 4.6 °C 1007.7 hPa SW 7.6 km/h 11.3 km/h 66 % 0 mm
01:17 10.7 °C 4.6 °C 1007.7 hPa WSW 9.2 km/h 13 km/h 66 % 0 mm
01:22 10.7 °C 4.6 °C 1007.7 hPa West 6.8 km/h 14.8 km/h 66 % 0 mm
01:27 10.7 °C 4.8 °C 1008 hPa WSW 4 km/h 14.8 km/h 67 % 0 mm
01:32 10.7 °C 5 °C 1008 hPa West 2.1 km/h 7.4 km/h 68 % 0 mm
01:37 10.7 °C 5.2 °C 1008.4 hPa West 8.9 km/h 11.3 km/h 69 % 0 mm
01:42 10.6 °C 5.4 °C 1008.4 hPa NW 10 km/h 19.3 km/h 70 % 0 mm
01:47 10.7 °C 5.4 °C 1008.4 hPa NW 10.6 km/h 18.5 km/h 70 % 0 mm
01:52 10.7 °C 5.4 °C 1008.4 hPa WNW 7.6 km/h 16.1 km/h 70 % 0 mm
01:57 10.6 °C 5.6 °C 1008.4 hPa WNW 7.1 km/h 16.1 km/h 71 % 0 mm
02:02 10.6 °C 5.5 °C 1008.7 hPa West 7.2 km/h 14.8 km/h 71 % 0 mm
02:07 10.6 °C 5.5 °C 1008.7 hPa West 10.3 km/h 14.8 km/h 71 % 0 mm
02:12 10.5 °C 5.4 °C 1008.7 hPa NNW 10.3 km/h 17.7 km/h 71 % 0 mm
02:17 10.4 °C 5.4 °C 1008.7 hPa WNW 10.3 km/h 20.4 km/h 71 % 0 mm
02:22 10.4 °C 5.3 °C 1008.7 hPa WNW 12.6 km/h 18.5 km/h 71 % 0 mm
02:27 10.4 °C 4.9 °C 1008.7 hPa WNW 6.1 km/h 16.1 km/h 69 % 0 mm
02:32 10.4 °C 4.7 °C 1008.7 hPa WNW 2.4 km/h 5.6 km/h 68 % 0 mm
02:37 10.3 °C 4.9 °C 1008.7 hPa WNW 4.3 km/h 11.1 km/h 69 % 0 mm
02:42 10.3 °C 4.4 °C 1008.7 hPa West 8 km/h 14.8 km/h 67 % 0 mm
02:47 10.3 °C 4.4 °C 1008.7 hPa West 8.4 km/h 20.9 km/h 67 % 0 mm
02:48 10.3 °C 4.2 °C 1008.7 hPa WNW 6.3 km/h 20.4 km/h 66 % 0 mm
02:54 10.3 °C 4.2 °C 1008.7 hPa West 12.7 km/h 24.1 km/h 66 % 0 mm
02:59 10.3 °C 4.2 °C 1008.7 hPa WNW 4.7 km/h 7.4 km/h 66 % 0 mm
03:04 10.3 °C 4.2 °C 1008.7 hPa WNW 4.8 km/h 18.5 km/h 66 % 0 mm
03:09 10.2 °C 4.2 °C 1008.7 hPa WNW 5.8 km/h 14.5 km/h 66 % 0 mm
03:14 10.2 °C 4.2 °C 1008.7 hPa West 1.1 km/h 5.6 km/h 66 % 0 mm
03:19 10.2 °C 4.1 °C 1009 hPa West 3.5 km/h 5.6 km/h 66 % 0 mm
03:29 10.1 °C 4 °C 1009.4 hPa West 2.3 km/h 7.4 km/h 66 % 0 mm
03:34 10 °C 3.9 °C 1009.4 hPa NW 5 km/h 14.5 km/h 66 % 0 mm
03:39 9.9 °C 3.6 °C 1009.4 hPa NW 4.3 km/h 14.8 km/h 65 % 0 mm
03:41 9.8 °C 3.6 °C 1009.4 hPa WNW 4.2 km/h 13 km/h 65 % 0 mm
03:46 9.8 °C 3.6 °C 1009.4 hPa WNW 6.6 km/h 16.7 km/h 65 % 0 mm
03:56 9.7 °C 3.4 °C 1009.4 hPa WNW 6.6 km/h 13 km/h 65 % 0 mm
04:01 9.7 °C 3.4 °C 1009.4 hPa West 8.2 km/h 13 km/h 65 % 0 mm
04:06 9.7 °C 3.2 °C 1009.4 hPa West 11.1 km/h 16.7 km/h 64 % 0 mm
04:11 9.6 °C 3.1 °C 1009.4 hPa NNW 10.3 km/h 22.2 km/h 64 % 0 mm
04:16 9.6 °C 3.1 °C 1009.7 hPa WNW 10.9 km/h 12.9 km/h 64 % 0 mm
04:22 9.5 °C 3 °C 1009.7 hPa WSW 6.1 km/h 6.1 km/h 64 % 0 mm
04:27 9.4 °C 2.9 °C 1009.7 hPa WNW 9.3 km/h 18.5 km/h 64 % 0 mm
04:32 9.4 °C 2.9 °C 1009.7 hPa WSW 7.6 km/h 18.5 km/h 64 % 0 mm
04:37 9.3 °C 3.1 °C 1009.7 hPa West 3.5 km/h 14.8 km/h 65 % 0 mm
04:42 9.2 °C 3 °C 1009.7 hPa WNW 4.3 km/h 14.8 km/h 65 % 0 mm
04:47 9.1 °C 3.1 °C 1010 hPa West 6 km/h 18.5 km/h 66 % 0 mm
04:52 8.9 °C 3.2 °C 1010 hPa West 9.8 km/h 13 km/h 67 % 0 mm
04:57 8.8 °C 3.2 °C 1010.4 hPa West 9 km/h 20.4 km/h 68 % 0 mm
05:02 8.7 °C 3.2 °C 1010.4 hPa SW 9.2 km/h 16.7 km/h 68 % 0 mm
05:07 8.6 °C 3.2 °C 1010.4 hPa WSW 5.6 km/h 22.2 km/h 69 % 0 mm
05:12 8.5 °C 2.9 °C 1010.7 hPa West 9.8 km/h 19.3 km/h 68 % 0 mm
05:17 8.4 °C 3.1 °C 1010.7 hPa WSW 7.9 km/h 14.5 km/h 69 % 0 mm
05:22 8.3 °C 2.8 °C 1010.7 hPa WNW 5.3 km/h 16.7 km/h 68 % 0 mm
05:27 8.3 °C 2.9 °C 1010.7 hPa WSW 8.7 km/h 13 km/h 69 % 0 mm
05:32 8.2 °C 2.9 °C 1010.7 hPa NNW 6.3 km/h 18.5 km/h 69 % 0 mm
05:37 8.2 °C 2.8 °C 1010.7 hPa WNW 8.2 km/h 20.4 km/h 69 % 0 mm
05:42 8.1 °C 2.7 °C 1010.7 hPa WSW 9.5 km/h 18.5 km/h 69 % 0 mm
05:48 8.1 °C 2.7 °C 1011.1 hPa WNW 10 km/h 14.5 km/h 69 % 0 mm
05:53 8 °C 2.7 °C 1011.1 hPa SW 7.2 km/h 18.5 km/h 69 % 0 mm
05:58 7.9 °C 2.6 °C 1011.4 hPa West 3.1 km/h 11.1 km/h 69 % 0 mm
06:03 7.9 °C 2.8 °C 1011.1 hPa WNW 6 km/h 18.5 km/h 70 % 0 mm
06:07 7.8 °C 2.7 °C 1011.1 hPa WNW 3.2 km/h 18.5 km/h 70 % 0 mm
06:12 7.8 °C 2.7 °C 1011.1 hPa WSW 7.6 km/h 18.5 km/h 70 % 0 mm
06:17 7.8 °C 2.7 °C 1011.1 hPa West 3.2 km/h 16.7 km/h 70 % 0 mm
06:22 7.7 °C 2.6 °C 1011.1 hPa WNW 9.2 km/h 20.4 km/h 70 % 0 mm
06:27 7.7 °C 2.6 °C 1011.1 hPa West 7.7 km/h 16.7 km/h 70 % 0 mm
06:32 7.6 °C 2.5 °C 1011.4 hPa West 10.3 km/h 20.4 km/h 70 % 0 mm
06:37 7.6 °C 2.5 °C 1011.4 hPa West 4.3 km/h 11.1 km/h 70 % 0 mm
06:42 7.6 °C 2.4 °C 1011.7 hPa WSW 7.6 km/h 13 km/h 70 % 0 mm
06:47 7.6 °C 2.4 °C 1012.1 hPa West 8.7 km/h 13 km/h 70 % 0 mm
06:52 7.5 °C 2.4 °C 1012.1 hPa WNW 8.9 km/h 14.8 km/h 70 % 0 mm
06:57 7.5 °C 2.4 °C 1012.1 hPa SSW 11.3 km/h 18.5 km/h 70 % 0 mm
07:02 7.5 °C 2.4 °C 1012.4 hPa WSW 6 km/h 7.4 km/h 70 % 0 mm
07:07 7.5 °C 2.4 °C 1012.4 hPa West 5.3 km/h 18.5 km/h 70 % 0 mm
07:12 7.5 °C 2.4 °C 1012.4 hPa West 9 km/h 14.8 km/h 70 % 0 mm
07:17 7.5 °C 2.4 °C 1012.4 hPa WSW 12.2 km/h 16.7 km/h 70 % 0 mm
07:22 7.5 °C 2.4 °C 1012.4 hPa WSW 4 km/h 9.3 km/h 70 % 0 mm
07:28 7.5 °C 2.6 °C 1012.4 hPa West 6.8 km/h 16.7 km/h 71 % 0 mm
07:33 7.4 °C 2.3 °C 1012.4 hPa WNW 11.1 km/h 18.5 km/h 70 % 0 mm
07:38 7.5 °C 2.6 °C 1012.8 hPa West 4.8 km/h 24.1 km/h 71 % 0 mm
07:43 7.5 °C 2.4 °C 1012.8 hPa WSW 15 km/h 22.2 km/h 70 % 0 mm
07:48 7.6 °C 2.4 °C 1012.8 hPa West 7.2 km/h 13 km/h 70 % 0 mm
07:53 7.6 °C 2.7 °C 1012.8 hPa West 8 km/h 18.5 km/h 71 % 0 mm
07:58 7.7 °C 2.6 °C 1013.1 hPa West 12.9 km/h 25.9 km/h 70 % 0 mm
08:03 7.7 °C 2.4 °C 1013.1 hPa WSW 9.5 km/h 18.5 km/h 69 % 0 mm
08:08 7.8 °C 2.4 °C 1013.1 hPa WSW 9.3 km/h 16.7 km/h 69 % 0 mm
08:13 7.8 °C 2.2 °C 1013.1 hPa WNW 12.2 km/h 31.5 km/h 68 % 0 mm
08:18 7.8 °C 2.3 °C 1013.4 hPa West 10.1 km/h 18.5 km/h 68 % 0 mm
08:22 7.8 °C 2.3 °C 1013.4 hPa NW 8.7 km/h 25.9 km/h 68 % 0 mm
08:27 7.9 °C 2.3 °C 1013.4 hPa West 8 km/h 27.8 km/h 68 % 0 mm
08:32 7.9 °C 2.1 °C 1013.4 hPa WNW 5.5 km/h 14.8 km/h 67 % 0 mm
08:37 7.9 °C 2.1 °C 1013.4 hPa WNW 8.4 km/h 16.7 km/h 67 % 0 mm
08:42 7.9 °C 1.3 °C 1013.4 hPa WNW 5.5 km/h 11.3 km/h 63 % 0 mm
08:47 8 °C 1.2 °C 1013.4 hPa WSW 19 km/h 29 km/h 62 % 0 mm
08:50 8.1 °C 1.2 °C 1013.4 hPa NNW 10.8 km/h 25.9 km/h 62 % 0 mm
08:55 8.2 °C 1.6 °C 1013.4 hPa WNW 7.2 km/h 22.5 km/h 63 % 0 mm
09:00 8.3 °C 1.4 °C 1013.8 hPa West 10.3 km/h 20.9 km/h 62 % 0 mm
09:05 8.5 °C 1.8 °C 1013.8 hPa WNW 12.1 km/h 24.1 km/h 63 % 0 mm
09:15 8.7 °C 1.4 °C 1013.4 hPa WNW 9.2 km/h 19.3 km/h 60 % 0 mm
09:20 8.8 °C 1.4 °C 1013.4 hPa West 7.9 km/h 31.5 km/h 60 % 0 mm
09:25 8.8 °C 1.7 °C 1013.8 hPa NNW 8.9 km/h 22.2 km/h 61 % 0 mm
09:30 8.8 °C 1.3 °C 1014.1 hPa NW 15 km/h 19.3 km/h 59 % 0 mm
09:35 8.8 °C 0.5 °C 1014.1 hPa WNW 10.1 km/h 25.9 km/h 56 % 0 mm
09:40 8.8 °C 0.5 °C 1013.8 hPa WNW 16.3 km/h 27.8 km/h 56 % 0 mm
09:45 8.9 °C 0.6 °C 1013.8 hPa West 16.1 km/h 24.1 km/h 56 % 0 mm
09:50 8.9 °C 0.8 °C 1014.1 hPa WSW 15.8 km/h 22.5 km/h 57 % 0 mm
09:55 8.9 °C 0.6 °C 1014.1 hPa West 8.2 km/h 25.9 km/h 56 % 0 mm
10:00 9 °C 0.7 °C 1014.4 hPa WSW 13.8 km/h 22.2 km/h 56 % 0 mm
10:05 9.1 °C 1 °C 1014.4 hPa WNW 11.7 km/h 20.4 km/h 57 % 0 mm
10:10 9.2 °C 1.1 °C 1014.4 hPa NW 14 km/h 20.9 km/h 57 % 0 mm
10:15 9.1 °C 1.1 °C 1014.4 hPa West 13.8 km/h 27.8 km/h 57 % 0 mm
10:20 8.9 °C 0.6 °C 1014.4 hPa West 13 km/h 22.2 km/h 56 % 0 mm
10:25 8.7 °C 0.9 °C 1014.4 hPa NW 11.9 km/h 25.9 km/h 58 % 0 mm
10:27 8.7 °C 0.6 °C 1014.4 hPa NW 13.5 km/h 19.3 km/h 57 % 0 mm
10:32 8.6 °C 0.5 °C 1014.1 hPa WNW 18.5 km/h 24.1 km/h 57 % 0 mm
10:38 8.5 °C 0.2 °C 1014.4 hPa NW 10.9 km/h 20.4 km/h 56 % 0 mm
10:43 8.6 °C 0 °C 1014.4 hPa WNW 10.3 km/h 24.1 km/h 55 % 0 mm
10:48 8.5 °C 0.2 °C 1014.4 hPa WNW 12.4 km/h 19.3 km/h 56 % 0 mm
10:53 8.4 °C -0.2 °C 1014.4 hPa NW 5.1 km/h 18.5 km/h 55 % 0 mm
10:58 8.3 °C -0.2 °C 1014.1 hPa West 11.6 km/h 25.9 km/h 55 % 0 mm
11:03 8.2 °C -0.3 °C 1014.1 hPa West 13.8 km/h 22.2 km/h 55 % 0 mm
11:08 8.1 °C -0.2 °C 1014.1 hPa SW 9.8 km/h 20.4 km/h 56 % 0 mm
11:13 8.1 °C -0.2 °C 1014.1 hPa West 10.8 km/h 18.5 km/h 56 % 0 mm
11:18 7.9 °C -0.8 °C 1014.1 hPa WNW 14.6 km/h 20.4 km/h 54 % 0 mm
11:23 7.9 °C -0.6 °C 1014.1 hPa WNW 14.2 km/h 18.5 km/h 55 % 0 mm
11:28 7.8 °C -0.7 °C 1014.1 hPa SW 12.7 km/h 24.1 km/h 55 % 0 mm
11:33 7.8 °C -0.9 °C 1014.1 hPa West 14.3 km/h 31.5 km/h 54 % 0 mm
11:38 7.7 °C -0.5 °C 1014.1 hPa West 8.4 km/h 13 km/h 56 % 0 mm
11:43 7.7 °C -0.5 °C 1014.4 hPa WSW 10.1 km/h 18.5 km/h 56 % 0 mm
11:48 7.7 °C -0.5 °C 1014.4 hPa NNW 11.6 km/h 27.8 km/h 56 % 0 mm
11:53 7.8 °C -0.4 °C 1014.1 hPa WNW 6.8 km/h 14.8 km/h 56 % 0 mm
11:58 7.8 °C -0.4 °C 1014.1 hPa WNW 9 km/h 13 km/h 56 % 0 mm
12:00 7.8 °C -0.7 °C 1014.1 hPa WNW 15.3 km/h 16.1 km/h 55 % 0 mm
12:05 7.8 °C -0.7 °C 1014.1 hPa WNW 18.7 km/h 25.9 km/h 55 % 0 mm
12:10 7.8 °C -0.9 °C 1014.1 hPa WNW 12.9 km/h 27.8 km/h 54 % 0 mm
12:15 7.8 °C -0.4 °C 1014.1 hPa West 11.4 km/h 31.5 km/h 56 % 0 mm
12:20 7.9 °C -0.6 °C 1014.1 hPa West 15 km/h 22.5 km/h 55 % 0 mm
12:25 7.9 °C -0.6 °C 1014.1 hPa SW 10.9 km/h 25.9 km/h 55 % 0 mm
12:35 8.1 °C -0.4 °C 1014.1 hPa WNW 10.6 km/h 25.9 km/h 55 % 0 mm
12:40 8.1 °C -0.4 °C 1013.8 hPa NNW 9.2 km/h 14.8 km/h 55 % 0 mm
12:45 8.1 °C -0.4 °C 1013.8 hPa WNW 10.5 km/h 20.4 km/h 55 % 0 mm
12:50 8.1 °C -0.7 °C 1013.8 hPa NW 9.3 km/h 16.7 km/h 54 % 0 mm
12:55 8.2 °C -0.8 °C 1014.1 hPa WSW 10.5 km/h 24.1 km/h 53 % 0 mm
13:00 8.2 °C -0.6 °C 1014.1 hPa SW 8.2 km/h 16.7 km/h 54 % 0 mm
13:05 8.3 °C -0.5 °C 1014.1 hPa WSW 4.5 km/h 11.3 km/h 54 % 0 mm
13:10 8.4 °C -0.4 °C 1014.1 hPa West 11.3 km/h 20.4 km/h 54 % 0 mm
13:15 8.4 °C -0.6 °C 1013.8 hPa WSW 13.4 km/h 27.8 km/h 53 % 0 mm
13:20 8.4 °C -0.3 °C 1014.1 hPa WNW 5.3 km/h 14.8 km/h 54 % 0 mm
13:25 8.5 °C -0.6 °C 1014.1 hPa WNW 9.8 km/h 17.7 km/h 53 % 0 mm
13:30 8.6 °C -0.8 °C 1014.1 hPa WNW 11.1 km/h 27.8 km/h 52 % 0 mm
13:35 8.6 °C -0.7 °C 1014.1 hPa NW 7.1 km/h 18.5 km/h 52 % 0 mm
13:40 8.7 °C -0.4 °C 1013.8 hPa WNW 13 km/h 22.5 km/h 53 % 0 mm
13:45 8.7 °C -0.7 °C 1013.8 hPa NW 9.2 km/h 18.5 km/h 52 % 0 mm
13:50 8.6 °C -0.9 °C 1013.8 hPa WSW 12.2 km/h 16.7 km/h 51 % 0 mm
13:55 8.5 °C -0.8 °C 1013.8 hPa WNW 12.4 km/h 18.5 km/h 52 % 0 mm
14:00 8.3 °C -0.9 °C 1013.8 hPa WNW 12.1 km/h 22.2 km/h 52 % 0 mm
14:05 8.2 °C -0.8 °C 1013.4 hPa West 8.2 km/h 22.2 km/h 53 % 0 mm
14:10 8.1 °C -0.7 °C 1013.8 hPa West 8.9 km/h 20.4 km/h 54 % 0 mm
14:15 7.9 °C -0.6 °C 1013.8 hPa WNW 6.4 km/h 19.3 km/h 55 % 0 mm
14:21 7.9 °C -0.3 °C 1013.8 hPa West 6 km/h 16.7 km/h 56 % 0 mm
14:25 7.9 °C -0.3 °C 1013.8 hPa WNW 10.5 km/h 24.1 km/h 56 % 0 mm
14:30 7.8 °C -0.9 °C 1013.8 hPa WNW 12.7 km/h 25.9 km/h 54 % 0 mm
14:35 7.8 °C -0.4 °C 1013.8 hPa WNW 7.7 km/h 18.5 km/h 56 % 0 mm
14:41 7.8 °C -0.4 °C 1014.1 hPa NW 12.9 km/h 27.4 km/h 56 % 0 mm
14:46 7.8 °C -0.4 °C 1013.8 hPa WNW 8 km/h 25.7 km/h 56 % 0 mm
14:51 7.7 °C -0.3 °C 1013.8 hPa WNW 9.7 km/h 25.7 km/h 57 % 0 mm
14:56 7.7 °C -0.6 °C 1013.8 hPa WNW 4.8 km/h 27.4 km/h 56 % 0 mm
15:01 7.6 °C -0.4 °C 1013.8 hPa WNW 11.3 km/h 18.5 km/h 57 % 0 mm
15:06 7.6 °C -0.4 °C 1013.8 hPa West 10.6 km/h 12.9 km/h 57 % 0 mm
15:11 7.5 °C -0.9 °C 1014.1 hPa NNW 12.1 km/h 22.2 km/h 55 % 0 mm
15:16 7.4 °C -0.8 °C 1014.1 hPa WNW 7.6 km/h 18.5 km/h 56 % 0 mm
15:21 7.3 °C -1.1 °C 1014.1 hPa WNW 11.4 km/h 20.4 km/h 55 % 0 mm
15:26 7.3 °C -1.4 °C 1014.1 hPa WNW 9 km/h 24.1 km/h 54 % 0 mm
15:31 7.2 °C -1.5 °C 1014.4 hPa NW 8.4 km/h 18.5 km/h 54 % 0 mm
15:36 7.2 °C -1.3 °C 1014.1 hPa West 9.7 km/h 22.5 km/h 55 % 0 mm
15:41 7.1 °C -1.3 °C 1013.8 hPa NW 9.2 km/h 19.3 km/h 55 % 0 mm
15:46 7.1 °C -1.1 °C 1014.1 hPa NW 4.7 km/h 18.5 km/h 56 % 0 mm
15:51 7 °C -1.2 °C 1014.4 hPa WSW 11.4 km/h 24.1 km/h 56 % 0 mm
15:56 7 °C -1.2 °C 1014.4 hPa NW 10.1 km/h 25.9 km/h 56 % 0 mm
16:01 6.9 °C -1 °C 1014.4 hPa WNW 11.1 km/h 16.7 km/h 57 % 0 mm
16:06 6.9 °C -1 °C 1014.4 hPa SW 7.4 km/h 14.8 km/h 57 % 0 mm
16:12 6.9 °C -1.1 °C 1014.4 hPa WSW 10.6 km/h 16.7 km/h 57 % 0 mm
16:17 6.8 °C -1.1 °C 1014.4 hPa WNW 12.2 km/h 18.5 km/h 57 % 0 mm
16:22 6.8 °C -0.9 °C 1014.4 hPa West 15.1 km/h 24.1 km/h 58 % 0 mm
16:27 6.7 °C -1.2 °C 1014.4 hPa WNW 8.4 km/h 19.3 km/h 57 % 0 mm
16:32 6.7 °C -1.3 °C 1014.4 hPa West 11.7 km/h 24.1 km/h 57 % 0 mm
16:37 6.7 °C -1.3 °C 1014.4 hPa West 11.7 km/h 29.6 km/h 57 % 0 mm
16:42 6.6 °C -1.4 °C 1014.4 hPa WNW 14.6 km/h 22.5 km/h 57 % 0 mm
16:47 6.6 °C -1.4 °C 1014.8 hPa NW 8 km/h 18.5 km/h 57 % 0 mm
16:52 6.6 °C -1.1 °C 1015.1 hPa NW 9.3 km/h 19.3 km/h 58 % 0 mm
16:57 6.4 °C -1.2 °C 1015.1 hPa West 8.2 km/h 14.8 km/h 58 % 0 mm
17:02 6.4 °C -1.3 °C 1015.1 hPa NW 10.6 km/h 29.6 km/h 58 % 0 mm
17:07 6.3 °C -1.3 °C 1015.1 hPa WNW 7.9 km/h 11.3 km/h 58 % 0 mm
17:12 6.3 °C -1.2 °C 1014.8 hPa WNW 10 km/h 16.1 km/h 59 % 0 mm
17:17 6.2 °C -1 °C 1014.8 hPa WNW 5 km/h 20.4 km/h 60 % 0 mm
17:23 6.2 °C -1.1 °C 1015.1 hPa NW 6 km/h 14.8 km/h 60 % 0 mm
17:28 6.1 °C -0.8 °C 1015.1 hPa WNW 6.1 km/h 18.5 km/h 61 % 0 mm
17:33 6.1 °C -1.1 °C 1015.1 hPa SSW 12.9 km/h 16.7 km/h 60 % 0 mm
17:38 6 °C -1.7 °C 1015.1 hPa West 2.3 km/h 14.8 km/h 58 % 0 mm
17:43 6 °C -1.7 °C 1015.1 hPa WNW 8 km/h 16.1 km/h 58 % 0 mm
17:48 5.9 °C -1.4 °C 1015.1 hPa NW 5.3 km/h 11.3 km/h 59 % 0 mm
17:53 5.9 °C -1.3 °C 1015.1 hPa WSW 7.1 km/h 14.8 km/h 60 % 0 mm
17:58 5.8 °C -1.6 °C 1015.1 hPa NW 10.1 km/h 16.7 km/h 59 % 0 mm
18:03 5.8 °C -1.4 °C 1015.1 hPa WNW 6.6 km/h 12.9 km/h 60 % 0 mm
18:08 5.7 °C -1.7 °C 1015.1 hPa WNW 9 km/h 18.5 km/h 59 % 0 mm
18:13 5.7 °C -1.7 °C 1015.1 hPa NW 2.9 km/h 20.4 km/h 59 % 0 mm
18:19 5.6 °C -1.8 °C 1015.5 hPa WNW 5.8 km/h 9.3 km/h 59 % 0 mm
18:24 5.6 °C -1.8 °C 1015.5 hPa WSW 3.7 km/h 14.8 km/h 59 % 0 mm
18:29 5.5 °C -1.7 °C 1015.5 hPa West 4 km/h 11.1 km/h 60 % 0 mm
18:34 5.5 °C -1.7 °C 1015.5 hPa WNW 6.1 km/h 13 km/h 60 % 0 mm
18:39 5.5 °C -1.7 °C 1015.5 hPa West 6.1 km/h 11.1 km/h 60 % 0 mm
18:44 5.4 °C -1.5 °C 1015.5 hPa West 4 km/h 9.3 km/h 61 % 0 mm
18:49 5.4 °C -1.5 °C 1015.5 hPa WSW 7.9 km/h 11.1 km/h 61 % 0 mm
18:54 5.4 °C -1.3 °C 1015.5 hPa WNW 1.9 km/h 11.3 km/h 62 % 0 mm
18:59 5.4 °C -1.3 °C 1015.5 hPa WSW 1.3 km/h 13 km/h 62 % 0 mm
19:04 5.4 °C -1.6 °C 1015.8 hPa WSW 7.7 km/h 11.1 km/h 61 % 0 mm
19:09 5.3 °C -1.6 °C 1015.8 hPa West 7.9 km/h 7.9 km/h 61 % 0 mm
19:15 5.3 °C -1.6 °C 1015.8 hPa WSW 8.9 km/h 18.5 km/h 61 % 0 mm
19:20 5.3 °C -1.7 °C 1015.8 hPa SW 5.5 km/h 7.4 km/h 61 % 0 mm
19:25 5.3 °C -1.4 °C 1015.8 hPa WNW 6.8 km/h 11.1 km/h 62 % 0 mm
19:30 5.2 °C -1.5 °C 1015.8 hPa WSW 6.4 km/h 14.5 km/h 62 % 0 mm
19:35 5.2 °C -1.5 °C 1015.8 hPa West 8.9 km/h 13 km/h 62 % 0 mm
19:40 5.1 °C -1.4 °C 1015.8 hPa WSW 5.3 km/h 13 km/h 63 % 0 mm
19:45 5.1 °C -1.4 °C 1015.8 hPa West 1.9 km/h 9.3 km/h 63 % 0 mm
19:50 5.1 °C -1.4 °C 1015.8 hPa West 3.9 km/h 7.4 km/h 63 % 0 mm
19:55 5.1 °C -1.4 °C 1016.1 hPa WSW 3.9 km/h 9.3 km/h 63 % 0 mm
20:00 5 °C -1.7 °C 1015.8 hPa West 5.8 km/h 11.1 km/h 62 % 0 mm
20:06 4.9 °C -1.5 °C 1015.8 hPa WNW 3.4 km/h 5.6 km/h 63 % 0 mm
20:11 4.9 °C -1.5 °C 1015.8 hPa West 3.2 km/h 16.1 km/h 63 % 0 mm
20:16 4.9 °C -1.8 °C 1015.8 hPa West 4.8 km/h 16.1 km/h 62 % 0 mm
20:21 4.9 °C -1.8 °C 1015.8 hPa West 3.2 km/h 11.3 km/h 62 % 0 mm
20:26 4.9 °C -1.6 °C 1015.8 hPa West 8 km/h 12.9 km/h 63 % 0 mm
20:31 4.9 °C -1.6 °C 1016.1 hPa West 4.8 km/h 14.5 km/h 63 % 0 mm
20:36 4.8 °C -1.6 °C 1016.1 hPa West 9.7 km/h 12.9 km/h 63 % 0 mm
20:41 4.8 °C -1.6 °C 1016.1 hPa West 8 km/h 12.9 km/h 63 % 0 mm
20:46 4.8 °C -1.7 °C 1015.8 hPa West 4.8 km/h 9.7 km/h 63 % 0 mm
20:51 4.8 °C -1.7 °C 1015.8 hPa West 8 km/h 12.9 km/h 63 % 0 mm
20:56 4.8 °C -1.7 °C 1015.8 hPa WNW 2.3 km/h 9.3 km/h 63 % 0 mm
21:01 4.7 °C -1.7 °C 1015.8 hPa West 7.6 km/h 11.3 km/h 63 % 0 mm
21:06 4.7 °C -1.7 °C 1015.8 hPa West 8.4 km/h 13 km/h 63 % 0 mm
21:11 4.7 °C -1.8 °C 1015.8 hPa West 6.1 km/h 13 km/h 63 % 0 mm
21:16 4.7 °C -1.8 °C 1015.8 hPa WSW 4.2 km/h 9.3 km/h 63 % 0 mm
21:21 4.6 °C -1.8 °C 1015.8 hPa WNW 5.6 km/h 9.3 km/h 63 % 0 mm
21:26 4.6 °C -1.8 °C 1015.5 hPa West 7.7 km/h 16.7 km/h 63 % 0 mm
21:31 4.6 °C -1.9 °C 1015.5 hPa WSW 2.3 km/h 5.6 km/h 63 % 0 mm
21:36 4.6 °C -1.7 °C 1015.5 hPa West 0.6 km/h 5.6 km/h 64 % 0 mm
21:41 4.5 °C -1.7 °C 1015.5 hPa WNW 5 km/h 9.3 km/h 64 % 0 mm
21:46 4.4 °C -1.8 °C 1015.1 hPa WSW 9.3 km/h 18.5 km/h 64 % 0 mm
21:51 4.4 °C -1.8 °C 1015.1 hPa WNW 6.6 km/h 13 km/h 64 % 0 mm
21:56 4.4 °C -1.8 °C 1015.5 hPa West 1.8 km/h 3.7 km/h 64 % 0 mm
22:01 4.4 °C -1.6 °C 1015.5 hPa Calm     65 % 0 mm
22:06 4.3 °C -1.7 °C 1015.5 hPa West 2.3 km/h 6.4 km/h 65 % 0 mm
22:11 4.3 °C -1.7 °C 1015.5 hPa WSW 0.2 km/h 3.7 km/h 65 % 0 mm
22:17 4.2 °C -1.8 °C 1015.5 hPa WSW 1.9 km/h 3.2 km/h 65 % 0 mm
22:22 4.1 °C -1.9 °C 1015.5 hPa WSW 0.2 km/h 3.7 km/h 65 % 0 mm
22:27 4.1 °C -1.7 °C 1015.5 hPa WSW 1.6 km/h 5.6 km/h 66 % 0 mm
22:32 3.9 °C -1.8 °C 1015.1 hPa Calm   3.7 km/h 66 % 0 mm
22:37 3.8 °C -1.7 °C 1015.1 hPa SSW 0.3 km/h 1.6 km/h 67 % 0 mm
22:42 3.7 °C -1.8 °C 1015.1 hPa WSW 1.1 km/h 3.7 km/h 67 % 0 mm
22:48 3.7 °C -1.7 °C 1015.1 hPa Calm   3.7 km/h 68 % 0 mm
22:53 3.6 °C -1.8 °C 1015.1 hPa SW 4.2 km/h 6.4 km/h 68 % 0 mm
22:58 3.5 °C -2.1 °C 1015.1 hPa WSW 4.2 km/h 5.6 km/h 67 % 0 mm
23:03 3.5 °C -1.8 °C 1015.1 hPa SW 2.4 km/h 9.3 km/h 68 % 0 mm
23:08 3.5 °C -1.8 °C 1015.5 hPa SSW 1.1 km/h 5.6 km/h 68 % 0 mm
23:13 3.5 °C -1.8 °C 1015.5 hPa West 6.9 km/h 9.3 km/h 68 % 0 mm
23:17 3.5 °C -1.7 °C 1015.5 hPa West 1.6 km/h 4.8 km/h 69 % 0 mm
23:22 3.6 °C -1.8 °C 1015.5 hPa WSW 4.7 km/h 8 km/h 68 % 0 mm
23:27 3.6 °C -1.8 °C 1015.5 hPa SW 1 km/h 5.6 km/h 68 % 0 mm
23:33 3.6 °C -1.7 °C 1015.8 hPa SSW 1.9 km/h 8 km/h 68 % 0 mm
23:38 3.6 °C -1.7 °C 1015.5 hPa WSW 0.3 km/h 3.7 km/h 68 % 0 mm
23:43 3.7 °C -1.7 °C 1015.5 hPa West 1.8 km/h 5.6 km/h 68 % 0 mm
23:48 3.7 °C -1.7 °C 1015.1 hPa SSW 3.4 km/h 5.6 km/h 68 % 0 mm
23:53 3.7 °C -1.7 °C 1015.1 hPa WSW 3.7 km/h 5.6 km/h 68 % 0 mm
23:58 3.7 °C -1.7 °C 1015.1 hPa West 4.2 km/h 7.4 km/h 68 % 0 mm
Crab Meadow Weather
Compliments of Weather Underground - 3 mb

Script developed by  Jim McMurry - jmcmurry@mwt.net Adapted for the template by  Wim van der Kuil - Leuven-Template.eu

Weather Terms: High Wind Warning - Sustained winds of 40 mph or greater for a duration of one hour or longer or gusts to 58 mph or greater.